Location: Asheville, NC
(35.6000°N, 82.5500°W)
Time: 00:30:30
(UTC-04:00)

Envisat - Pass Details

Date: 13 March 2018
Orbit: 764 x 766 km, 98.2° (Epoch: 24 June)

Event Time Altitude Azimuth Distance (km) Brightness Sun altitude
Rises 22:29:55 0° 219° (SW) 3,213 6.4 -35.2°
Reaches altitude 10° 22:34:23 10° 257° (WSW) 2,295 5.9 -36.0°
Maximum altitude 22:35:31 11° 270° (W) 2,249 6.0 -36.2°
Drops below altitude 10° 22:36:38 10° 283° (WNW) 2,298 6.2 -36.4°
Sets 22:41:10 0° 320° (NW) 3,231 7.1 -37.2°
